Hervey Bay Observation History
Time Wind Speed Temp Pressure Rel. Hum Rain
30/09:30am E 5-8 kts 26.8°c 1016.7 hPa 65% 0.0mm
30/09:00am WSW 4-6 kts 25.9°c 1016.6 hPa 74% 3.6mm
30/08:30am SW 5-6 kts 24.5°c 1016.7 hPa 78% 3.6mm
30/08:00am SSW 5-6 kts 22.7°c 1016.5 hPa 85% 3.6mm
30/07:30am SSW 5-6 kts 21.5°c 1016.2 hPa 91% 3.6mm
30/07:00am WSW 4-5 kts 20.4°c 1015.9 hPa 94% 3.6mm
30/06:30am SW 4-5 kts 19.6°c 1015.8 hPa 96% 3.6mm
30/06:00am SW 3-5 kts 19.4°c 1015.6 hPa 95% 3.6mm
30/05:30am CALM 0 kts 19.4°c 1015.3 hPa 95% 3.6mm
30/05:00am SSW 5-6 kts 19.6°c 1015.2 hPa 96% 3.6mm
30/04:30am SW 4-6 kts 19.9°c 1015.2 hPa 96% 3.6mm
30/04:00am SW 4-5 kts 19.8°c 1015.4 hPa 95% 3.6mm
30/03:30am SW 4-5 kts 19.9°c 1015.3 hPa 95% 3.6mm
30/03:00am SW 4-6 kts 20.1°c 1015.6 hPa 95% 3.6mm
30/02:30am SSW 5-7 kts 20.2°c 1015.8 hPa 95% 3.6mm
30/02:00am SW 4-5 kts 20.2°c 1016.0 hPa 94% 3.6mm
30/01:30am SW 4-6 kts 20.4°c 1016.4 hPa 94% 3.6mm
30/01:00am SW 4-5 kts 20.6°c 1016.8 hPa 94% 3.6mm
30/12:30am SW 3-5 kts 20.4°c 1016.9 hPa 93% 3.6mm
30/12:00am CALM 0-3 kts 20.4°c 1016.9 hPa 92% 3.6mm
Time Wind Speed Temp Pressure Rel. Hum Rain
29/11:30pm SSW 1-3 kts 20.7°c 1016.9 hPa 92% 3.6mm
29/11:00pm SSW 5 kts 21.0°c 1017.1 hPa 92% 3.6mm
29/10:30pm SSW 5-6 kts 21.1°c 1017.5 hPa 90% 3.6mm
29/10:00pm SE 3-4 kts 21.4°c 1017.5 hPa 86% 3.6mm
29/09:30pm SE 3-4 kts 22.1°c 1017.5 hPa 84% 3.6mm
29/09:00pm E 5-7 kts 22.9°c 1017.4 hPa 82% 3.6mm
29/08:30pm E 6-8 kts 23.1°c 1017.2 hPa 81% 3.6mm
29/08:00pm ESE 6-7 kts 22.7°c 1017.2 hPa 82% 3.6mm
29/07:30pm ESE 6-7 kts 23.2°c 1017.0 hPa 80% 3.6mm
29/07:00pm E 7-9 kts 23.6°c 1016.7 hPa 79% 3.6mm
29/06:30pm E 7-9 kts 24.0°c 1016.6 hPa 77% 3.6mm
29/06:00pm ESE 9-11 kts 24.5°c 1016.3 hPa 73% 3.6mm
29/05:30pm ESE 8-11 kts 24.8°c 1016.1 hPa 72% 3.6mm
29/05:00pm ESE 10-13 kts 25.0°c 1015.7 hPa 70% 3.6mm
29/04:30pm ESE 9-14 kts 26.3°c 1015.5 hPa 65% 3.6mm
29/04:00pm ESE 11-15 kts 26.6°c 1015.2 hPa 63% 3.6mm
29/03:30pm ESE 11-14 kts 27.5°c 1015.3 hPa 59% 3.6mm
29/03:00pm ESE 10-13 kts 27.7°c 1015.3 hPa 57% 3.6mm
29/02:30pm ESE 10-13 kts 28.0°c 1015.4 hPa 58% 3.6mm
29/02:00pm SE 9-12 kts 28.2°c 1015.4 hPa 61% 3.6mm
29/01:30pm ESE 8-13 kts 27.7°c 1015.4 hPa 58% 3.6mm
29/01:00pm ESE 9-12 kts 27.9°c 1015.7 hPa 58% 3.6mm
29/12:30pm ESE 8-13 kts 27.4°c 1016.0 hPa 59% 3.6mm
29/12:00pm ESE 10-12 kts 27.0°c 1016.5 hPa 65% 3.2mm
29/11:30am NE 3-5 kts 24.8°c 1017.0 hPa 76% 3.2mm
29/11:24am NNE 4-6 kts 25.0°c 1017.0 hPa 81% 3.2mm
29/11:06am ESE 7-15 kts 23.2°c 1017.4 hPa 79% 2.8mm
29/11:00am SE 3-7 kts 24.9°c 1017.3 hPa 78% 0.6mm
29/10:30am SE 7-11 kts 25.8°c 1017.4 hPa 67% 0.0mm
29/10:00am SE 5-9 kts 26.3°c 1017.4 hPa 66% 0.0mm
29/09:30am SSE 7-11 kts 25.6°c 1017.6 hPa 72% 0.0mm
29/09:00am SE 7-11 kts 25.2°c 1017.8 hPa 71% 2.8mm
29/08:30am S 5-9 kts 23.9°c 1017.7 hPa 77% 2.8mm
29/08:00am SSW 8-10 kts 22.7°c 1017.6 hPa 81% 2.8mm
29/07:30am S 4-7 kts 22.3°c 1017.2 hPa 85% 2.8mm
29/07:00am SSW 6-8 kts 21.0°c 1016.8 hPa 90% 2.8mm
29/06:30am SW 4-6 kts 20.4°c 1016.4 hPa 94% 2.8mm
29/06:00am SSW 4-6 kts 20.1°c 1016.0 hPa 95% 2.8mm
29/05:30am SW 3-5 kts 20.4°c 1015.7 hPa 95% 2.8mm
29/05:00am SW 5 kts 20.5°c 1015.7 hPa 95% 2.8mm
29/04:30am SSW 5-6 kts 20.5°c 1015.7 hPa 95% 2.8mm
29/04:00am SW 3-4 kts 20.5°c 1015.7 hPa 95% 2.8mm
29/03:30am SSW 4-6 kts 20.3°c 1015.6 hPa 94% 2.8mm
29/03:00am WSW 4-5 kts 20.3°c 1015.4 hPa 93% 2.8mm
29/02:30am SSW 5-6 kts 20.3°c 1016.1 hPa 93% 2.8mm
29/02:00am SSW 3-5 kts 20.8°c 1016.1 hPa 93% 2.8mm
29/01:30am S 5-7 kts 21.0°c 1016.3 hPa 94% 2.8mm
29/01:00am SSE 4-6 kts 20.7°c 1016.8 hPa 95% 2.8mm
29/12:30am SSW 5-7 kts 20.4°c 1017.0 hPa 95% 2.8mm
29/12:00am SSW 6-7 kts 20.5°c 1017.1 hPa 95% 2.8mm
Time Wind Speed Temp Pressure Rel. Hum Rain
28/11:30pm SW 4-6 kts 20.5°c 1017.1 hPa 94% 2.6mm
28/11:00pm SSW 5-7 kts 20.6°c 1017.4 hPa 93% 2.6mm
28/10:30pm SW 4-6 kts 20.7°c 1017.5 hPa 92% 2.6mm
28/10:00pm SSW 5-7 kts 20.7°c 1017.8 hPa 92% 2.6mm
28/09:30pm SSW 5-7 kts 20.8°c 1017.6 hPa 92% 2.6mm
28/09:00pm SSW 6-8 kts 21.0°c 1017.7 hPa 91% 2.6mm
28/08:30pm SSW 5-6 kts 20.8°c 1017.5 hPa 90% 2.6mm
28/08:00pm S 2-3 kts 21.1°c 1017.2 hPa 88% 2.6mm
28/07:30pm SSE 4-5 kts 21.6°c 1017.1 hPa 88% 2.6mm
28/07:00pm SE 3-4 kts 21.9°c 1017.1 hPa 85% 2.6mm
28/06:30pm SSE 3-4 kts 22.1°c 1017.0 hPa 83% 2.6mm
28/06:00pm SSE 4-7 kts 22.8°c 1016.6 hPa 81% 2.6mm
28/05:30pm SSE 6-10 kts 23.6°c 1016.5 hPa 78% 2.6mm
28/05:00pm SE 8-11 kts 24.2°c 1016.2 hPa 70% 2.6mm
28/04:30pm SE 8-12 kts 24.7°c 1016.3 hPa 71% 2.6mm
28/04:00pm SSE 9-12 kts 23.9°c 1016.3 hPa 75% 2.6mm
28/03:30pm SSE 7-10 kts 25.2°c 1016.1 hPa 75% 2.6mm
28/03:00pm SSE 5-8 kts 24.3°c 1016.3 hPa 74% 2.6mm
28/02:30pm S 4-6 kts 23.6°c 1016.7 hPa 80% 2.6mm
28/02:00pm E 5-7 kts 22.6°c 1016.8 hPa 83% 2.6mm
28/01:30pm E 6-8 kts 22.8°c 1017.3 hPa 89% 2.2mm
28/01:00pm SE 8-12 kts 23.0°c 1017.4 hPa 85% 0.4mm
28/12:30pm ESE 10-15 kts 24.0°c 1017.5 hPa 80% 0.2mm
28/12:00pm SSE 12-18 kts 26.8°c 1017.4 hPa 63% 0.2mm
28/11:30am SSE 9-16 kts 26.7°c 1017.6 hPa 66% 0.2mm
28/11:00am SE 10-16 kts 27.6°c 1017.9 hPa 63% 0.2mm
28/10:30am SSE 8-13 kts 26.2°c 1018.1 hPa 70% 0.2mm
28/10:00am S 9-15 kts 25.3°c 1018.0 hPa 71% 0.2mm
28/09:30am S 8-13 kts 24.5°c 1018.1 hPa 75% 0.0mm
28/09:00am S 8-12 kts 23.7°c 1018.1 hPa 78% 2.6mm
28/08:30am S 7-11 kts 23.0°c 1018.1 hPa 82% 2.6mm
28/08:00am SSW 9-16 kts 21.9°c 1018.1 hPa 89% 2.6mm
28/07:30am SSW 9-11 kts 20.8°c 1017.8 hPa 91% 2.6mm
28/07:00am SSW 8-11 kts 20.4°c 1017.6 hPa 93% 2.6mm
28/06:43am SSW 8-11 kts 20.2°c 1017.4 hPa 95% 2.6mm
28/06:30am SSW 8-12 kts 19.9°c 1017.4 hPa 95% 2.6mm
28/06:00am SSW 6-9 kts 20.0°c 1017.4 hPa 95% 2.4mm
28/05:30am SW 7-10 kts 20.0°c 1017.0 hPa 95% 2.4mm
28/05:00am SSW 7-11 kts 20.0°c 1016.7 hPa 96% 2.4mm
28/04:30am SSW 7-11 kts 20.1°c 1016.6 hPa 95% 1.8mm
28/04:00am SSW 8-11 kts 20.2°c 1016.6 hPa 95% 1.4mm
28/03:36am SSW 7-11 kts 20.3°c 1016.6 hPa 95% 1.4mm
28/03:30am SSW 6-8 kts 20.3°c 1016.6 hPa 96% 1.4mm
28/03:00am SSW 8-10 kts 20.4°c 1016.7 hPa 95% 1.2mm
28/02:51am SSW 7-9 kts 20.3°c 1016.9 hPa 95% 1.2mm
28/02:30am SSW 7-10 kts 20.3°c 1016.8 hPa 95% 1.2mm
28/02:00am SW 6-10 kts 20.3°c 1017.2 hPa 94% 1.2mm
28/01:48am SW 6-8 kts 20.3°c 1017.2 hPa 94% 1.2mm
28/01:30am SSW 5-7 kts 20.3°c 1017.6 hPa 94% 1.2mm
28/01:00am SSW 6-8 kts 20.3°c 1017.6 hPa 94% 1.0mm
28/12:43am SSW 7-11 kts 20.2°c 1017.6 hPa 93% 1.0mm
28/12:30am SSW 7-9 kts 20.2°c 1017.9 hPa 93% 1.0mm
28/12:00am SSW 9-13 kts 20.2°c 1018.1 hPa 93% 1.0mm